Flag for Indonesia Weather past 2 weeks in Makassar, South Sulawesi, Indonesia

Now
93 °F

Passing clouds.


Feels Like: 92 °F
Forecast: 74 / 92 °F
Wind: 6 mph from North

Location: Ujung Pandang / Hasanuddin

Current Time: Sep 23, 2014 at 10:52:13 AM

Latest Report: Sep 23, 2014 at 10:30 AM


Visibility: N/A

Pressure: 29.92 "Hg

Humidity: 30%

Dew point: 57 °F

Location of MakassarLocation

Historic Weather in Makassar — Graph

°F

Makassar temperature yesterday

Maximum temperature yesterday: 93 °F (at 11:00 AM)
Minimum temperature yesterday: 66 °F (at 5:30 AM)
Average temperature yesterday: 81 °F

Past Weeks' High & Low Weather Summary

 TemperatureHumidityPressure
High99 °F (Sep 13, 1:30 PM)94% (Sep 17, 3:30 AM)29.95 "Hg (Sep 17, 3:30 AM)
Low64 °F (Sep 9, 4:30 AM)16% (Sep 13, 10:00 AM)29.71 "Hg (Sep 13, 3:30 PM)
Average82 °F54%29.85 "Hg
* Reported Sep 8 9:00 AM — Sep 23 9:30 AM, Makassar, Weather by CustomWeather, © 2014

Note: Actual official high and low records may vary slightly from our data, if they occured in-between our weather recording intervals... More about our weather records

Advertising

Makassar weather history for previous 24 hours

 ConditionsComfort  
Time TempWeatherWind HumidityBarometerVisibility
9:30 AM
Sep 23
91 °FPassing clouds.2 mph32%29.95 "HgN/A
9:00 AM90 °FPassing clouds.2 mph33%29.95 "HgN/A
8:30 AM88 °FPassing clouds.2 mph35%29.95 "HgN/A
8:00 AM84 °FPassing clouds.5 mph40%29.95 "HgN/A
7:30 AM81 °FPassing clouds.5 mph45%29.92 "HgN/A
7:00 AM75 °FPassing clouds.2 mph54%29.92 "HgN/A
6:30 AM72 °FPassing clouds.3 mph61%29.92 "HgN/A
6:00 AM70 °FPassing clouds.2 mph60%29.92 "HgN/A
5:30 AM72 °FPassing clouds.3 mph61%29.89 "HgN/A
5:00 AM73 °FPassing clouds.6 mph57%29.89 "Hg5 mi
4:30 AM73 °FPassing clouds.6 mph57%29.86 "Hg5 mi
4:00 AM72 °FPassing clouds.3 mph65%29.89 "Hg5 mi
3:30 AM72 °FPassing clouds.3 mph69%29.89 "Hg5 mi
3:00 AM72 °FPassing clouds.2 mph73%29.86 "Hg5 mi
2:30 AM73 °FPassing clouds.2 mph69%29.86 "Hg5 mi
2:00 AM73 °FPassing clouds.5 mph74%29.86 "Hg5 mi
1:30 AM75 °FPassing clouds.2 mph74%29.86 "Hg5 mi
1:00 AM75 °FPassing clouds.2 mph74%29.86 "Hg5 mi
12:30 AM77 °FPassing clouds.3 mph69%29.86 "Hg5 mi
12:00 AM77 °FPassing clouds.3 mph69%29.89 "Hg5 mi
11:00 PM
Sep 22
79 °FPassing clouds.3 mph70%29.89 "Hg5 mi
10:30 PM81 °FPassing clouds.5 mph66%29.89 "Hg5 mi
10:00 PM81 °FPassing clouds.6 mph66%29.89 "Hg5 mi
9:30 PM81 °FPassing clouds.5 mph70%29.89 "Hg5 mi
9:00 PM81 °FPassing clouds.5 mph70%29.89 "Hg5 mi
8:30 PM81 °FPassing clouds.3 mph66%29.86 "Hg5 mi
8:00 PM81 °FPassing clouds.3 mph66%29.86 "Hg5 mi
7:30 PM82 °FPassing clouds.6 mph62%29.86 "Hg5 mi
7:00 PM84 °FPassing clouds.7 mph58%29.83 "Hg5 mi
6:30 PM84 °FPassing clouds.6 mph62%29.83 "Hg5 mi
6:00 PM88 °FPassing clouds.6 mph49%29.83 "Hg6 mi
5:30 PM90 °FPassing clouds.6 mph46%29.83 "HgN/A
5:00 PM90 °FPassing clouds.7 mph46%29.80 "HgN/A
4:30 PM90 °FPassing clouds.8 mph43%29.80 "HgN/A
4:00 PM91 °FPassing clouds.10 mph44%29.80 "HgN/A
3:30 PM91 °FPassing clouds.10 mph44%29.80 "HgN/A
3:00 PM91 °FPassing clouds.13 mph44%29.83 "HgN/A
2:30 PM91 °FPassing clouds.14 mph44%29.83 "HgN/A
2:00 PM91 °FPassing clouds.13 mph44%29.83 "HgN/A
1:30 PM93 °FPassing clouds.13 mph41%29.83 "HgN/A
1:00 PM91 °FPassing clouds.13 mph44%29.86 "HgN/A
12:30 PM93 °FPassing clouds.12 mph41%29.86 "HgN/A
12:00 PM93 °FPassing clouds.10 mph41%29.86 "HgN/A
11:30 AM93 °FPassing clouds.10 mph41%29.89 "HgN/A
11:00 AM93 °FPassing clouds.7 mph41%29.89 "HgN/A
10:30 AM91 °FPassing clouds.6 mph44%29.92 "HgN/A
10:00 AM91 °FPassing clouds.3 mph44%29.92 "HgN/A
Weather by CustomWeather, © 2014

See weather overviewHow to use our weather pages